Погода в Орджоникидзе

Россия / Республика Крым     44°57′49″N   35°21′28″E
темп.,
°C
ветер,
м/с
пор.,
м/с
влажн.,
%
обл.,
%
осадки,
мм/ч
давл.,
гПа
погр.,
м
24 июня, чт
чт2400:00+22сз238832 0.0 101349
03:00+20зсз359018 0.0 101497
06:00+21з128671 0.1 101463
09:00+24юв217193 0.9 1014509
12:00+25ю437356 0.0 1014648
15:00+26ю32717 0.0 1013612
18:00+24ю44795 0.0 1014356
21:00+22ююв22875 0.0 101421
25 июня, пт
пт2500:00+21ююв11908 1.2 101414
03:00+20ю018916 2.8 101316
06:00+20ю229078 3.3 101348
09:00+24всв11715 3.5 1013430
12:00+26ююв326713 0.0 1012859
15:00+25ю43698 0.0 1012635
18:00+25ю43715 0.0 1011429
21:00+22ю238589 0.0 101160
26 июня, сб
сб2600:00+21юз22855 0.0 101141
03:00+21сз118310 0.0 101011
06:00+21ссв118790 0.1 101129
09:00+24ююв21766 0.2 1011477
12:00+25ююв43685 0.0 1011638
15:00+26ю436315 0.0 1010632
18:00+24ююв337591 0.6 1010256
21:00+21ю34885 0.9 101088
27 июня, вс
вс2700:00+21юз34875 0.0 101083
03:00+21зсз11855 0.1 101011
06:00+21юз22835 0.0 101025
09:00+24ю34745 0.1 1011443
12:00+26ю44650 0.0 1010675
15:00+27ю44631 0.0 1010810
18:00+24ю447745 0.1 1010259
21:00+22ююз348851 0.1 101175
28 июня, пн
пн2800:00+21юз228949 0.2 101125
03:00+21ю118751 0.4 101116
06:00+22юз118671 0.0 101124
09:00+25в11705 0.0 1012610
12:00+27юв126562 0.3 1012926
15:00+27зюз245982 3.9 10121293
18:00+24ссв2377100 0.6 1012294
21:00+22зсз11821 0.8 101313